Regional Weather Roundup
Issued by NWS

Home | Current Version | Previous Version | Graphics & Text | Print | Product List | Glossary On
Versions: 1 2 3 4 5 6 7 8 9 10 11 12 13 14 15 16 17 18 19 20 21 22 23 24 25 26 27 28 29 30 31 32 33 34 35 36 37 38 39 40 41 42 43 44 45 46 47 48 49 50
062
ASUS44 KJAN 020803
RWRMS

MISSISSIPPI HOURLY WEATHER ROUNDUP
NATIONAL WEATHER SERVICE JACKSON MS
300 AM CDT SAT AUG 02 2014

NOTE: "FAIR: INDICATES FEW OR NO CLOUDS BELOW 12,000 FEET WITH NO
SIGNIFICANT WEATHER AND/OR OBSTRUCTIONS TO VISIBILITY.

MSZ001>002-007>008-010>013-018>021-025>028-034>036-020900-
NORTHWEST MISSISSIPPI

CITY           SKY/WX    TMP DP  RH WIND       PRES   REMARKS
CLARKSDALE     CLOUDY    72  72 100 CALM      30.02S
CLEVELAND      CLOUDY    72  72 100 CALM      30.01S
GREENWOOD      LGT RAIN  72  70  93 SW3       30.02S FOG
GREENVILLE     CLOUDY    73  69  87 MISG      30.01F
GRENADA        CLOUDY    70  68  94 CALM      30.01S
OLIVE BRANCH   PTCLDY    70  70 100 CALM      30.04S
OXFORD         FAIR      72  66  83 E3        30.04S
TUNICA         MOSUNNY   72  68  88 NE7       30.03S
$$

MSZ003>006-009-014>017-022>024-029>033-037>039-020900-
NORTHEAST MISSISSIPPI

CITY           SKY/WX    TMP DP  RH WIND       PRES   REMARKS
BELMONT        PTSUNNY   70  68  93 CALM      30.03S
COLUMBUS AFB   CLOUDY    72  70  94 CALM      30.00S
CORINTH          N/A     70  66  88 CALM      30.03S FOG
GOLDN TRIANGLE CLOUDY    73  66  78 CALM      30.01R
STARKVILLE     CLOUDY    70  68  94 CALM      30.01S
TUPELO         PTCLDY    72  67  84 NE7       30.01S
$$

MSZ040-058-020900-
CENTRAL MISSISSIPPI

CITY           SKY/WX    TMP DP  RH WIND       PRES   REMARKS
JACKSON INTL   CLOUDY    72  70  93 E3        30.00F
JACKSON HAWKNS CLOUDY    73  68  84 E6        30.00F
MERIDIAN KEY   CLOUDY    72  69  90 CALM      30.00S
MERIDIAN NAS   CLOUDY    72  69  90 W3        30.00S
RAYMOND        FAIR      70  64  83 CALM      30.00S HAZE
VICKSBURG      LGT RAIN  71  69  93 NE5       29.99F FOG
$$

MSZ059>079-020900-
SOUTH MISSISSIPPI

CITY           SKY/WX    TMP DP  RH WIND       PRES   REMARKS
BROOKHAVEN     PTSUNNY   70  70 100 CALM      30.01F
COLUMBIA       PTSUNNY   70  70 100 CALM      29.98S FOG
HATTIESBURG    CLOUDY    73  71  93 CALM      30.00S
MCCOMB         CLOUDY    72  69  90 CALM      29.99S
NATCHEZ        CLOUDY    72  68  88 E7        29.98S
PINE BELT      PTCLDY    72  66  83 CALM      30.01S
$$

MSZ080>082-020900-
COASTAL MISSISSIPPI

CITY           SKY/WX    TMP DP  RH WIND       PRES   REMARKS
BILOXI         CLOUDY    73  69  87 NE5       29.98S
PASCAGOULA     PTCLDY    68  67  96 CALM      29.98S
GULFPORT       CLOUDY    76  69  79 CALM      29.97S
$$



USA.gov is the U.S. government's official web portal to all federal, state and local government web resources and services.